Regional Weather Roundup
Issued by NWS

Home | Current Version | Previous Version | Graphics & Text | Print | Product List | Glossary On
Versions: 1 2 3 4 5 6 7 8 9 10 11 12 13 14 15 16 17 18 19 20 21 22 23 24 25 26 27 28 29 30 31 32 33 34 35 36 37 38 39 40 41 42 43 44 45 46 47 48 49 50
000
ASUS45 KCYS 221010
RWRWY

WYOMING REGIONAL WEATHER ROUNDUP
NATIONAL WEATHER SERVICE CHEYENNE WY
400 AM MDT FRI MAY 22 2015

NOTE:  "FAIR" INDICATES FEW OR NO CLOUDS BELOW 12,000 FEET
WITH NO SIGNIFICANT WEATHER AND/OR OBSTRUCTIONS TO VISIBILITY.

WYZ001-221100-
YELLOWSTONE NATIONAL PARK

CITY           SKY/WX    TMP DP  RH WIND       PRES   REMARKS
LK YELLOWSTONE   N/A     35  33  92 CALM      30.07F
W YELLOWSTONE  NOT AVBL

$$
WYZ002>013-054>058-071-098>099-221100-
NORTHERN WYOMING

CITY           SKY/WX    TMP DP  RH WIND       PRES   REMARKS
JACKSON        CLOUDY    43  43 100 CALM      30.00S
CODY           CLOUDY    48  43  81 SW7       29.97S
GREYBULL       FAIR      52  45  77 CALM      29.94F
WORLAND        FAIR      48  44  86 CALM      29.95S
SHERIDAN       FAIR      45  41  86 S7        29.98S
BUFFALO        FAIR      44  42  93 SE12      30.01S
GILLETTE       FAIR      47  43  86 SE10      30.03S
HULETT         FAIR      45  37  76 E6        30.07F
NEWCASTLE      CLOUDY    50  41  71 SE15      30.08F

$$
WYZ014>020-022>026-101>103-221100-
CENTRAL WYOMING

CITY           SKY/WX    TMP DP  RH WIND       PRES   REMARKS
BIG PINEY      MOCLDY    42  39  89 N3        30.03F
PINEDALE       FAIR      41  41 100 W5        30.03S
DUBOIS         DRIZZLE   39  37  93 NW5       30.02F
LANDER         FAIR      44  42  93 CALM      29.97S
RIVERTON       MOCLDY    46  43  89 NE6       29.99F
CASPER         CLOUDY    45  43  93 NE3       30.00F
DOUGLAS        CLOUDY    48  44  86 SE15      30.04F

$$
WYZ021-027>030-104>119-221100-
SOUTHERN WYOMING

CITY           SKY/WX    TMP DP  RH WIND       PRES   REMARKS
EVANSTON       FAIR      40  37  89 E9        30.00R WCI  34
KEMMERER       CLOUDY    39  37  93 N8        30.02S WCI  34
FORT BRIDGER   PTSUNNY   41  41 100 E7        30.04S
ROCK SPRINGS   FAIR      42  40  92 SW7       30.00S
DIXON          DRIZZLE   47  44  87 NE9       30.01F
RAWLINS        LGT RAIN  44  40  85 NW7       30.00F
SARATOGA       RAIN      43  41  93 CALM      30.02F
LARAMIE        LGT RAIN  42  41  96 SE14      30.02F
CHEYENNE       FOG       43  42  97 SE16      30.04F VSB 3/4
TORRINGTON     CLOUDY    49  44  83 SE10      30.05F
PINE BLUFFS    CLOUDY    45  43  93 SE14      30.07F

$$



USA.gov is the U.S. government's official web portal to all federal, state and local government web resources and services.